User: anonymous   Login
Location: Newark
(48.8481°N, 20.9372°E)
Time: 09:06:40
(UTC+00:00)
Language:

AIST 2D - Orbit

View from above orbital plane
View from above orbital plane
View from above satellite
View from above satellite

Ground track
Ground track

The orbit data is extracted from the following two-line orbital elements,

1 41465U 16026B   20157.82308874  .00001357  00000-0  42593-4 0  9993
2 41465  97.1532  48.1225 0009579 296.4776 128.1267 15.34688738229645
Epoch (UTC): 05 June 2020 19:45:14
Eccentricity: 0.0009579
inclination: 97.1532°
perigee height: 455 km
apogee height: 468 km
right ascension of ascending node: 48.1225°
argument of perigee: 296.4776°
revolutions per day: 15.34688738
mean anomaly at epoch: 128.1267°
orbit number at epoch: 22964

The dashed part of the orbit path shows where the satellite is in the earth's shadow,  

DLR